Location: Orange Harbor Mobile Home Park
(26.6923°N, 81.7937°W)
Time: 08:41:16
(UTC+00:00)

GOES 2 Rocket - Pass Details

Date: 19 September 2020
Orbit: 569 x 1674 km, 28.4° (Epoch: 29 October)

Event Time Altitude Azimuth Distance (km) Brightness Sun altitude
Rises 00:37:20 0° 252° (WSW) 2,766 7.5 -16.3°
Reaches altitude 10° 00:39:34 10° 251° (WSW) 1,852 6.4 -16.8°
Maximum altitude 00:43:43 76° 165° (SSE) 600 2.8 -17.7°
Enters shadow 00:45:17 38° 88° (E) 909 3.4 -18.1°
